[[{"header":{"parameterUnit":"m.s-1","parameterCategory":1,"la1":30.2991,"la2":30.254,"lo1":-89.0895,"lo2":-89.0444,"dy":0.0017,"dx":0.0017,"nx":28,"ny":28,"refTime":"2023-08-24T03:00:00:Z","depth":0,"parameterNumber":2,"parameterNumberName":"U-component_of_WINDS"},"data":[0,0,0,0,0,0,0,0,0,0,0,0,0,0,0,0,0,0,0,0,0,0,0,0,0,0,0,0,0,0,0,0,0,0,0,0,0,0,0,0,0,0,0,0,0,0,0,0,0,0,0,0,0,0,0,0,0,0,-1.1326,-1.1324,0,-1.1154,-1.1152,-1.115,-1.1044,-1.1043,-1.1042,-1.1042,-1.0862,-1.0858,-1.0854,0,0,0,0,0,0,0,0,0,0,0,0,0,-1.1558,-1.1555,-1.1326,-1.1324,-1.1322,-1.1155,-1.1152,-1.115,-1.1044,-1.1043,-1.1042,-1.1042,-1.0864,-1.0859,-1.0854,0,0,0,0,0,0,0,0,0,0,0,0,0,-1.1429,-1.1553,-1.1327,-1.1249,-1.124,-1.1155,-1.1152,-1.1149,-1.1044,-1.1043,-1.1042,-1.1041,-1.0865,-1.0859,-1.0853,-1.0831,0,0,-1.0833,-1.0831,0,0,0,0,0,0,0,0,-1.1437,-1.1421,-1.1262,-1.1254,-1.1244,-1.112,-1.1168,-1.1042,-1.1044,-1.1118,-1.1042,-1.1041,-1.0948,-1.0935,-1.0905,-1.0822,-1.0815,-1.0833,-1.0829,-1.0826,-1.0824,0,0,0,0,0,0,0,-1.1446,-1.1428,-1.1258,-1.126,-1.1249,-1.1221,-1.1202,-1.1144,-1.104,-1.1112,-1.1104,-1.1085,-1.0943,-1.0911,-1.09,-1.0812,-1.0833,-1.0827,-1.0823,-1.0821,-1.0703,-1.0703,0,0,0,0,0,0,-1.1468,-1.1436,-1.1264,-1.1253,-1.134,-1.1218,-1.1196,-1.116,-1.104,-1.1021,-1.1086,-1.1081,-1.0922,-1.0907,-1.0893,-1.0859,-1.0826,-1.082,-1.0817,-1.0702,-1.0703,-1.0703,0,0,0,0,0,0,-1.1473,-1.1453,-1.127,-1.1342,-1.1317,-1.1215,-1.1175,-1.1157,-1.1125,-1.1021,-1.1001,-1.1072,-1.0921,-1.0902,-1.0847,-1.0851,-1.0817,-1.0812,-1.0701,-1.0702,-1.0703,-1.0792,0,0,0,0,0,0,-1.148,-1.1456,-1.1447,-1.1343,-1.1313,-1.1229,-1.1176,-1.1155,-1.1115,-1.1107,-1.1003,-1.0985,-1.0919,-1.0857,-1.0841,-1.0842,-1.0807,-1.07,-1.0702,-1.0703,-1.0788,-1.0796,-1.0802,0,0,0,0,0,-1.1489,-1.1478,-1.1447,-1.1427,-1.1301,-1.123,-1.1213,-1.1138,-1.1116,-1.1106,-1.1039,-1.0988,-1.0854,-1.0853,-1.0833,-1.0833,-1.07,-1.0701,-1.0703,-1.0785,-1.0794,-1.0802,0,0,0,0,0,0,-1.1585,-1.1463,-1.1428,-1.1383,-1.1318,-1.1212,-1.1197,-1.115,-1.1088,-1.1083,-1.0991,-1.0969,-1.0923,-1.0872,-1.0873,-1.0805,-1.0771,-1.0769,-1.084,-1.0848,-1.0855,-1.0868,-1.0801,0,0,0,0,0,-1.1601,-1.1555,-1.145,-1.1421,-1.139,-1.13,-1.1266,-1.1214,-1.1142,-1.1113,-1.1042,-1.0973,-1.0915,-1.0878,-1.0819,-1.078,-1.0756,-1.077,-1.0777,-1.0784,-1.0783,-1.0758,-1.0763,-1.0708,-1.0708,-1.0708,0,0,-1.1633,-1.1561,-1.1537,-1.1439,-1.1382,-1.1335,-1.1277,-1.1229,-1.1193,-1.1105,-1.105,-1.0995,-1.0912,-1.0866,-1.0841,-1.0821,-1.0793,-1.0786,-1.0792,-1.0787,-1.076,-1.0766,-1.077,-1.0709,-1.0709,-1.0709,0,0,-1.1669,-1.161,-1.1579,-1.1524,-1.1439,-1.1379,-1.1372,-1.1273,-1.1233,-1.1177,-1.111,-1.1065,-1.0967,-1.091,-1.0869,-1.0884,-1.0835,-1.0867,-1.0904,-1.0881,-1.0886,-1.0889,-1.0894,-1.0897,-1.0866,-1.0866,-1.0866,0,-1.172,-1.1648,-1.1569,-1.1526,-1.1484,-1.1404,-1.1372,-1.1321,-1.1221,-1.1194,-1.1173,-1.1049,-1.0987,-1.0926,-1.093,-1.0899,-1.0887,-1.0878,-1.0892,-1.0894,-1.0896,-1.09,-1.0902,-1.0871,-1.087,-1.087,-1.0869,0,-1.1714,-1.1665,-1.165,-1.1558,-1.1514,-1.1477,-1.1392,-1.1357,-1.1309,-1.125,-1.1193,-1.1116,-1.1041,-1.1022,-1.0974,-1.0954,-1.0945,-1.0909,-1.0873,-1.0907,-1.0909,-1.091,-1.0877,-1.0875,-1.0874,-1.0873,0,0,-1.1805,-1.167,-1.1666,-1.1623,-1.1523,-1.1483,-1.1442,-1.1369,-1.1341,-1.1274,-1.1237,-1.1156,-1.1123,-1.1076,-1.1021,-1.1001,-1.1018,-1.0967,-1.0964,-1.098,-1.0991,-1.1019,-1.1022,-1.0985,-1.0985,-1.0985,-1.0998,0,-1.1826,-1.1749,-1.1678,-1.1626,-1.158,-1.1503,-1.1466,-1.1401,-1.1346,-1.1297,-1.1235,-1.1179,-1.114,-1.1111,-1.1088,-1.1021,-1.1019,-1.1019,-1.0948,-1.0947,-1.0972,-1.1023,-1.1052,-1.1068,-1.0998,-1.0998,-1.0999,0,-1.184,-1.1779,-1.1724,-1.1629,-1.1607,-1.1576,-1.1503,-1.1458,-1.1382,-1.1343,-1.1291,-1.1233,-1.1185,-1.1155,-1.1086,-1.1088,-1.1055,-1.1018,-1.1016,-1.1007,-1.0975,-1.1015,-1.1072,-1.1075,-1.0999,-1.0999,-1.0999,0,-1.1913,-1.1816,-1.177,-1.1736,-1.1624,-1.1604,-1.1557,-1.148,-1.1441,-1.1377,-1.135,-1.1281,-1.1244,-1.1191,-1.1116,-1.11,-1.1055,-1.1018,-1.1021,-1.1023,-1.1015,-1.1017,-1.1068,-1.0994,-1.0994,-1.0994,-1.0994,0,-1.1944,-1.1913,-1.1802,-1.1774,-1.1737,-1.1654,-1.1619,-1.1564,-1.1497,-1.1456,-1.1384,-1.1348,-1.125,-1.1201,-1.1142,-1.1095,-1.1078,-1.1044,-1.1029,-1.1051,-1.1055,-1.1028,-1.1025,-1.0994,-1.0994,-1.0994,-1.0994,0,-1.2019,-1.1943,-1.1888,-1.1788,-1.1762,-1.1739,-1.1652,-1.1621,-1.1562,-1.1511,-1.1494,-1.1401,-1.134,-1.1259,-1.1172,-1.1132,-1.1092,-1.1068,-1.1119,-1.111,-1.1117,-1.1118,-1.1152,-1.1153,-1.108,-1.108,-1.1081,0,-1.2044,-1.2019,-1.1916,-1.1884,-1.1839,-1.1789,-1.1749,-1.1666,-1.1627,-1.1539,-1.1519,-1.1453,-1.1395,-1.1301,-1.1224,-1.1158,-1.1131,-1.1148,-1.1121,-1.1144,-1.1132,-1.1135,-1.1132,-1.1155,-1.1156,-1.1157,-1.1158,0,-1.2097,-1.2061,-1.2006,-1.1939,-1.1894,-1.1837,-1.1776,-1.1754,-1.1658,-1.1618,-1.1556,-1.1511,-1.1423,-1.1358,-1.1282,-1.1231,-1.1179,-1.1167,-1.1164,-1.1187,-1.1218,-1.1201,-1.1138,-1.1167,-1.1166,-1.1165,-1.1165,-1.1165,-1.2147,-1.2121,-1.2045,-1.1987,-1.1933,-1.1879,-1.1845,-1.1782,-1.1729,-1.1652,-1.1606,-1.1545,-1.1469,-1.1361,-1.1313,-1.1263,-1.1243,-1.1239,-1.1237,-1.1238,-1.1245,-1.1226,-1.1249,-1.1248,-1.1248,-1.1248,-1.1247,0,-1.2196,-1.2144,-1.2092,-1.201,-1.1964,-1.192,-1.1851,-1.1815,-1.1763,-1.1698,-1.1643,-1.1571,-1.1507,-1.1426,-1.1357,-1.1333,-1.1307,-1.1318,-1.1319,-1.1308,-1.1267,-1.1277,-1.134,-1.134,-1.134,-1.134,-1.134,-1.134,-1.2217,-1.2171,-1.2126,-1.2052,-1.1999,-1.194,-1.1905,-1.1853,-1.18,-1.1724,-1.1671,-1.1619,-1.1547,-1.1472,-1.1412,-1.1389,-1.1367,-1.1385,-1.1355,-1.1319,-1.1311,-1.1303,-1.1312,-1.1381,-1.1381,-1.14,-1.14,-1.14]},{"header":{"parameterUnit":"m.s-1","parameterCategory":1,"la1":30.2991,"la2":30.254,"lo1":-89.0895,"lo2":-89.0444,"dy":0.0017,"dx":0.0017,"nx":28,"ny":28,"refTime":"2023-08-24T03:00:00:Z","depth":0,"parameterNumber":3,"parameterNumberName":"V-component_of_WINDS"},"data":[0,0,0,0,0,0,0,0,0,0,0,0,0,0,0,0,0,0,0,0,0,0,0,0,0,0,0,0,0,0,0,0,0,0,0,0,0,0,0,0,0,0,0,0,0,0,0,0,0,0,0,0,0,0,0,0,0,0,1.3115,1.3114,0,1.3052,1.3051,1.305,1.3052,1.3053,1.3054,1.3055,1.2985,1.2982,1.2979,0,0,0,0,0,0,0,0,0,0,0,0,0,1.3233,1.3231,1.3115,1.3114,1.3113,1.3052,1.3051,1.305,1.3052,1.3053,1.3054,1.3055,1.2985,1.2982,1.2979,0,0,0,0,0,0,0,0,0,0,0,0,0,1.3177,1.323,1.3115,1.3107,1.3106,1.3052,1.3051,1.305,1.3052,1.3053,1.3054,1.3056,1.2987,1.2983,1.2979,1.2927,0,0,1.2966,1.2965,0,0,0,0,0,0,0,0,1.318,1.3172,1.3109,1.3108,1.3106,1.3061,1.3067,1.3008,1.3051,1.3072,1.3055,1.3056,1.3009,1.3003,1.2988,1.2924,1.2921,1.2966,1.2963,1.2962,1.2961,0,0,0,0,0,0,0,1.3184,1.3175,1.309,1.3108,1.3106,1.3105,1.3098,1.3056,1.3033,1.307,1.307,1.3063,1.3008,1.2992,1.2986,1.292,1.2966,1.2962,1.296,1.2958,1.2808,1.2806,0,0,0,0,0,0,1.319,1.3178,1.3092,1.3088,1.3147,1.3102,1.3095,1.3074,1.3034,1.3029,1.3062,1.3063,1.2998,1.2991,1.2984,1.2919,1.2962,1.2958,1.2956,1.2809,1.2807,1.2806,0,0,0,0,0,0,1.3193,1.3182,1.3094,1.3133,1.3122,1.3098,1.3075,1.3072,1.3056,1.3028,1.3023,1.305,1.2999,1.2989,1.2941,1.2916,1.2956,1.2953,1.2811,1.2809,1.2807,1.279,0,0,0,0,0,0,1.3196,1.3183,1.3165,1.3133,1.312,1.3054,1.3074,1.307,1.305,1.3051,1.3015,1.301,1.2999,1.2947,1.2937,1.2912,1.2949,1.2813,1.281,1.2807,1.2792,1.2787,1.2783,0,0,0,0,0,1.32,1.3162,1.3164,1.3153,1.3096,1.3053,1.3045,1.3034,1.3048,1.3028,1.3009,1.3011,1.2922,1.2942,1.2931,1.2904,1.2815,1.2811,1.2808,1.2794,1.2788,1.2783,0,0,0,0,0,0,1.319,1.3157,1.3159,1.311,1.3084,1.3053,1.3028,1.3028,1.2997,1.2999,1.2986,1.2978,1.2929,1.2912,1.2935,1.2851,1.2869,1.2863,1.2863,1.2857,1.2852,1.2856,1.2946,0,0,0,0,0,1.3182,1.3151,1.3124,1.3083,1.307,1.3051,1.3032,1.3026,1.2998,1.2987,1.2965,1.2937,1.2902,1.2879,1.2845,1.2791,1.2781,1.2767,1.2762,1.2758,1.2752,1.2719,1.2712,1.2794,1.2794,1.2794,0,0,1.3165,1.3143,1.3124,1.308,1.3059,1.3026,1.3042,1.3006,1.298,1.2981,1.2933,1.2917,1.2884,1.2832,1.2807,1.2816,1.2728,1.2753,1.2751,1.2746,1.2715,1.2707,1.27,1.2792,1.2792,1.2793,0,0,1.3116,1.3098,1.3061,1.304,1.3009,1.2997,1.2988,1.2957,1.2946,1.2899,1.2899,1.2867,1.2808,1.2784,1.2764,1.2706,1.2706,1.2696,1.2669,1.2638,1.2631,1.2625,1.2602,1.2594,1.2691,1.2691,1.2691,0,1.3098,1.3049,1.3041,1.3004,1.2984,1.2985,1.2946,1.2926,1.2885,1.287,1.2881,1.2806,1.2784,1.2725,1.2711,1.2696,1.2683,1.2699,1.2633,1.2627,1.2622,1.2599,1.2591,1.2689,1.269,1.269,1.269,0,1.3027,1.2993,1.2966,1.2928,1.2905,1.2867,1.2852,1.2829,1.2825,1.2811,1.2762,1.2736,1.2697,1.2683,1.2678,1.2622,1.2628,1.2637,1.2654,1.2613,1.2591,1.2583,1.2688,1.2688,1.2688,1.2689,0,0,1.2968,1.2927,1.2917,1.2899,1.2865,1.2837,1.2799,1.2762,1.2741,1.2714,1.2679,1.2629,1.2636,1.2614,1.2607,1.258,1.2532,1.2591,1.259,1.2578,1.2466,1.2458,1.2449,1.2533,1.2532,1.253,1.2468,0,1.2914,1.2847,1.2839,1.2779,1.2746,1.2747,1.2713,1.2687,1.2674,1.2642,1.2626,1.259,1.2604,1.2589,1.2563,1.2544,1.2509,1.2549,1.2498,1.2497,1.2504,1.2438,1.2429,1.2372,1.246,1.2458,1.2457,0,1.2841,1.2812,1.2749,1.2719,1.2704,1.2675,1.2639,1.261,1.258,1.2572,1.2547,1.2543,1.2502,1.2524,1.2464,1.2491,1.2471,1.2458,1.2456,1.2448,1.2472,1.2426,1.2353,1.2343,1.2445,1.2446,1.2447,0,1.2801,1.2746,1.2701,1.2686,1.265,1.2629,1.2612,1.2585,1.2562,1.2531,1.2516,1.248,1.246,1.2431,1.2417,1.2435,1.2357,1.2379,1.2347,1.2347,1.2328,1.2329,1.2248,1.232,1.232,1.232,1.232,0,1.2739,1.27,1.2682,1.2654,1.2609,1.26,1.2556,1.254,1.2515,1.2482,1.2482,1.245,1.2435,1.2401,1.239,1.2341,1.2333,1.2323,1.232,1.2321,1.2322,1.2305,1.2308,1.2318,1.2318,1.2319,1.2319,0,1.2686,1.2673,1.2623,1.2594,1.2586,1.2554,1.2527,1.2499,1.2486,1.2445,1.2434,1.2413,1.2373,1.2357,1.2308,1.23,1.2243,1.2244,1.2253,1.2251,1.2219,1.2221,1.2122,1.2108,1.2192,1.2191,1.219,0,1.2646,1.2616,1.2584,1.2562,1.2546,1.2512,1.2489,1.2479,1.2455,1.2419,1.2394,1.2355,1.2322,1.2258,1.2237,1.2198,1.2197,1.2165,1.2191,1.2193,1.2193,1.2194,1.2189,1.2159,1.2159,1.2158,1.2157,0,1.2576,1.2571,1.2539,1.2505,1.2478,1.2451,1.2424,1.2406,1.2391,1.2364,1.2324,1.2299,1.2249,1.2208,1.2169,1.2151,1.215,1.215,1.214,1.2139,1.2144,1.2138,1.2237,1.2151,1.2152,1.2152,1.2153,1.2153,1.2526,1.2498,1.2471,1.2435,1.2414,1.2389,1.236,1.2344,1.2311,1.227,1.2266,1.2222,1.2192,1.2139,1.2119,1.2083,1.2091,1.2078,1.2074,1.2069,1.2066,1.2153,1.2077,1.2077,1.2077,1.2077,1.2077,0,1.2453,1.2436,1.2403,1.2366,1.2337,1.2342,1.2312,1.2287,1.2249,1.2222,1.2191,1.2143,1.2104,1.208,1.2041,1.2016,1.2015,1.2006,1.2006,1.2001,1.2062,1.2074,1.2007,1.2007,1.2007,1.2007,1.2007,1.2007,1.2411,1.2364,1.2356,1.2298,1.2281,1.2239,1.2221,1.2196,1.2175,1.2122,1.209,1.2076,1.2049,1.2008,1.1971,1.1965,1.1949,1.1939,1.1933,1.199,1.1997,1.2004,1.2014,1.1936,1.1936,1.1874,1.1873,1.1873]}]]